STARLINK-1877 (47162 NORAD) Tracking and Keplerian Element Data
This shows tracking and keplerian element data for the satellite.
Feedback or suggestion? Click here.
Element | Value |
Catalog | 47162 |
Name | STARLINK-1877 |
Epoch Orbit | 891 |
Epoch Day | 16.16667824 |
Epoch Year | 2021 |
RAAN | 97.6299 |
Inclination | 53.0548 |
Eccentricity | 0.0001297 |
Argument of Perigee | 64.8553 |
Mean Anonmoly | 182.5485 |
Mean Motion | 15.51775737 |
Decay Rate | -0.01085293 |
L1 | 1 47162U 20088AS 21016.16667824 -.01085293 00000-0 -19724-1 0 9992 |
L2 | 2 47162 53.0548 97.6299 0001297 64.8553 182.5485 15.51775737 8918 |
Live tracking and technical data element details for STARLINK-1877 (NORAD 47162). STARLINK-1877 can be tracked NOW for your location showing map with azimuth and elevation plus other details from your city location.
Track the satellite on the map from your city or location and see movement details for azimuth, elevation, latitude, longitude, range, height, and movement on the map or in text.
IsCatalogInMostPopularTable: catalog: 47162, numindb: 25
Update: records affected: 1
GetName: 47162 STARLINK-1877
Hit Count: updated at: Sun, 17 Jan 2021 10:30:37 GMT